Date String (YYYY-MM-DD hh:mm:ss) UTC,Instrument flags,absolute air pressure of the measurement (hPa),sample flow rate (lpm),inlet stack bypass flow (lpm),air temperature of the measurement (°C),ambient temperature measured by the external sensor (°C),aerosol sample conditioner tube jacket temperature (°C),OPC LED temperature (°C),internal box temperature (°C),relative humidity of the measurement (%),span deviation,mass concentration of particles derived from Lorenz-Mie calculation of OPC scattering (μg/m³),mass concentration of particles derived from Lorenz-Mie calculation of OPC scattering (μg/m³),mass concentration of particles derived from Lorenz-Mie calculation of OPC scattering (μg/m³)
DateTimeUTC,F1_M11,P_M11,Q1_M11,Q2_M11,T1_M11,T2_M11,T3_M11,T4_M11,T5_M11,U1_M11,ZSPAN_M11,X0_M11,X2_M11,X1_M11
2024-03-19 23:00:00,SystemResetWarning,0826.8,5.00,000.00,024.9,024.2,000.0,033.3,026.7,12.5,0000.0,0011.31,0004.44,0003.61
2024-03-19 23:01:00,SystemResetWarning,0826.8,5.00,000.00,025.0,024.2,000.0,033.4,026.7,12.6,0000.0,0011.35,0004.44,0003.63
2024-03-19 23:02:00,SystemResetWarning,0826.8,5.00,000.00,025.0,024.3,000.0,033.4,026.7,12.4,0000.0,0011.45,0004.44,0003.65
2024-03-19 23:03:00,SystemResetWarning,0826.8,5.00,000.00,025.0,024.2,000.0,033.4,026.7,12.7,0000.0,0011.36,0004.48,0003.66
2024-03-19 23:04:00,SystemResetWarning,0826.9,5.00,000.00,025.0,024.3,000.0,033.4,026.8,12.5,0000.0,0011.49,0004.46,0003.67
2024-03-19 23:05:00,SystemResetWarning,0826.8,5.00,000.00,025.0,024.3,000.0,033.4,026.8,12.5,0000.0,0011.19,0004.43,0003.70
2024-03-19 23:06:00,SystemResetWarning,0826.8,5.00,000.00,025.0,024.3,000.0,033.4,026.7,12.4,0000.0,0011.09,0004.43,0003.73
2024-03-19 23:07:00,SystemResetWarning,0826.8,5.00,000.00,025.0,024.3,000.0,033.4,026.8,12.6,0000.0,0010.92,0004.42,0003.74
2024-03-19 23:08:00,SystemResetWarning,0826.9,4.99,000.00,025.0,024.3,000.0,033.4,026.8,12.4,0000.0,0011.14,0004.45,0003.75
2024-03-19 23:09:00,SystemResetWarning,0826.9,5.00,000.00,025.0,024.3,000.0,033.4,026.8,12.8,0000.0,0011.29,0004.48,0003.75
2024-03-19 23:10:00,SystemResetWarning,0826.9,5.01,000.00,025.0,024.3,000.0,033.4,026.8,13.0,0000.0,0011.98,0004.51,0003.76
2024-03-19 23:11:00,SystemResetWarning,0826.9,5.01,000.00,025.0,024.3,000.0,033.4,026.8,13.0,0000.0,0011.39,0004.54,0003.75
2024-03-19 23:12:00,SystemResetWarning,0826.9,5.00,000.00,025.0,024.4,000.0,033.4,026.9,13.2,0000.0,0011.40,0004.53,0003.72
2024-03-19 23:13:00,SystemResetWarning,0826.9,4.98,000.00,025.1,024.4,000.0,033.4,026.9,13.2,0000.0,0011.56,0004.54,0003.68
2024-03-19 23:14:00,SystemResetWarning,0826.8,4.99,000.00,025.1,024.4,000.0,033.5,026.9,12.7,0000.0,0011.78,0004.50,0003.67
2024-03-19 23:15:00,SystemResetWarning,0826.8,5.01,000.00,025.1,024.4,000.0,033.5,026.9,12.6,0000.0,0011.80,0004.50,0003.66
2024-03-19 23:16:00,SystemResetWarning,0826.8,5.01,000.00,025.1,024.4,000.0,033.5,026.9,12.8,0000.0,0011.50,0004.52,0003.63
2024-03-19 23:17:00,SystemResetWarning,0826.8,5.01,000.00,025.1,024.5,000.0,033.5,026.9,13.1,0000.0,0012.11,0004.56,0003.63
2024-03-19 23:18:00,SystemResetWarning,0826.8,4.99,000.00,025.1,024.5,000.0,033.5,026.9,12.9,0000.0,0012.09,0004.55,0003.62
2024-03-19 23:19:00,SystemResetWarning,0826.9,4.99,000.00,025.1,024.5,000.0,033.5,026.9,12.8,0000.0,0012.15,0004.54,0003.61
2024-03-19 23:20:00,SystemResetWarning,0826.9,5.00,000.00,025.1,024.5,000.0,033.5,027.0,12.8,0000.0,0012.85,0004.54,0003.60
2024-03-19 23:21:00,SystemResetWarning,0826.9,5.00,000.00,025.1,024.5,000.0,033.5,027.0,12.9,0000.0,0012.65,0004.50,0003.59
2024-03-19 23:22:00,SystemResetWarning,0826.9,5.01,000.00,025.2,024.5,000.0,033.5,027.0,12.4,0000.0,0012.55,0004.47,0003.59
2024-03-19 23:23:00,SystemResetWarning,0826.9,5.01,000.00,025.2,024.5,000.0,033.6,027.0,12.7,0000.0,0012.42,0004.45,0003.59
2024-03-19 23:24:00,SystemResetWarning,0826.9,4.99,000.00,025.2,024.5,000.0,033.6,027.0,12.6,0000.0,0012.91,0004.42,0003.60
2024-03-19 23:25:00,SystemResetWarning,0826.9,5.00,000.00,025.2,024.5,000.0,033.6,027.0,12.6,0000.0,0013.01,0004.40,0003.60
2024-03-19 23:26:00,SystemResetWarning,0826.9,4.99,000.00,025.2,024.5,000.0,033.6,027.0,13.3,0000.0,0013.84,0004.43,0003.59
2024-03-19 23:27:00,SystemResetWarning,0826.9,5.02,000.00,025.2,024.5,000.0,033.6,027.0,12.5,0000.0,0014.18,0004.43,0003.59
2024-03-19 23:28:00,SystemResetWarning,0826.9,5.01,000.00,025.2,024.5,000.0,033.6,027.0,12.8,0000.0,0013.79,0004.42,0003.58
2024-03-19 23:29:00,SystemResetWarning,0826.9,5.00,000.00,025.2,024.5,000.0,033.6,027.0,12.7,0000.0,0013.65,0004.42,0003.60
2024-03-19 23:30:00,SystemResetWarning,0826.9,5.00,000.00,025.2,024.5,000.0,033.6,027.0,12.6,0000.0,0013.54,0004.44,0003.60
2024-03-19 23:31:00,SystemResetWarning,0826.9,5.00,000.00,025.2,024.5,000.0,033.6,027.0,12.4,0000.0,0013.55,0004.48,0003.62
2024-03-19 23:32:00,SystemResetWarning,0826.9,4.99,000.00,025.2,024.5,000.0,033.7,027.0,12.4,0000.0,0012.62,0004.52,0003.64
2024-03-19 23:33:00,SystemResetWarning,0826.9,5.01,000.00,025.2,024.5,000.0,033.7,027.0,12.4,0000.0,0012.61,0004.51,0003.64
2024-03-19 23:34:00,SystemResetWarning,0826.8,5.01,000.00,025.2,024.5,000.0,033.7,027.0,12.7,0000.0,0013.20,0004.53,0003.65
2024-03-19 23:35:00,SystemResetWarning,0826.8,5.00,000.00,025.2,024.5,000.0,033.7,027.0,12.8,0000.0,0013.29,0004.50,0003.64
2024-03-19 23:36:00,SystemResetWarning,0826.8,5.00,000.00,025.3,024.5,000.0,033.7,027.1,12.5,0000.0,0012.89,0004.47,0003.64
2024-03-19 23:37:00,SystemResetWarning,0826.8,5.00,000.00,025.3,024.5,000.0,033.7,027.0,12.9,0000.0,0013.25,0004.43,0003.62
2024-03-19 23:38:00,SystemResetWarning,0826.8,5.00,000.00,025.3,024.5,000.0,033.7,027.1,13.3,0000.0,0012.51,0004.42,0003.61
2024-03-19 23:39:00,SystemResetWarning,0826.8,5.00,000.00,025.3,024.5,000.0,033.7,027.1,13.2,0000.0,0012.65,0004.36,0003.60
2024-03-19 23:40:00,SystemResetWarning,0826.8,5.00,000.00,025.3,024.5,000.0,033.7,027.1,13.1,0000.0,0012.69,0004.32,0003.56
2024-03-19 23:41:00,SystemResetWarning,0826.8,5.00,000.00,025.3,024.5,000.0,033.7,027.1,12.9,0000.0,0013.64,0004.29,0003.54
2024-03-19 23:42:00,SystemResetWarning,0826.8,4.99,000.00,025.3,024.5,000.0,033.7,027.1,12.6,0000.0,0014.20,0004.23,0003.51
2024-03-19 23:43:00,SystemResetWarning,0826.8,5.00,000.00,025.3,024.5,000.0,033.7,027.1,12.6,0000.0,0014.63,0004.16,0003.48
2024-03-19 23:44:00,SystemResetWarning,0826.8,5.00,000.00,025.3,024.5,000.0,033.7,027.1,12.4,0000.0,0014.63,0004.13,0003.47
2024-03-19 23:45:00,SystemResetWarning,0826.9,5.00,000.00,025.3,024.5,000.0,033.7,027.1,12.4,0000.0,0014.43,0004.15,0003.47
2024-03-19 23:46:00,SystemResetWarning,0826.9,5.00,000.00,025.3,024.5,000.0,033.7,027.1,12.4,0000.0,0014.94,0004.17,0003.48
2024-03-19 23:47:00,SystemResetWarning,0826.8,5.00,000.00,025.3,024.5,000.0,033.7,027.1,12.3,0000.0,0015.27,0004.20,0003.48
2024-03-19 23:48:00,SystemResetWarning,0826.9,5.01,000.00,025.3,024.5,000.0,033.8,027.1,12.3,0000.0,0014.62,0004.24,0003.50
2024-03-19 23:49:00,SystemResetWarning,0826.9,5.01,000.00,025.3,024.5,000.0,033.8,027.1,12.5,0000.0,0014.29,0004.26,0003.52
2024-03-19 23:50:00,SystemResetWarning,0826.9,4.98,000.00,025.3,024.6,000.0,033.8,027.1,12.4,0000.0,0013.43,0004.27,0003.53
2024-03-19 23:51:00,SystemResetWarning,0826.9,5.00,000.00,025.3,024.6,000.0,033.8,027.1,12.5,0000.0,0013.76,0004.32,0003.54
2024-03-19 23:52:00,SystemResetWarning,0826.9,5.02,000.00,025.3,024.6,000.0,033.8,027.1,12.6,0000.0,0013.42,0004.33,0003.55
2024-03-19 23:53:00,SystemResetWarning,0826.9,4.99,000.00,025.3,024.6,000.0,033.8,027.1,12.6,0000.0,0012.53,0004.35,0003.56
2024-03-19 23:54:00,SystemResetWarning,0826.9,4.99,000.00,025.3,024.6,000.0,033.8,027.1,12.7,0000.0,0012.83,0004.37,0003.56
2024-03-19 23:55:00,SystemResetWarning,0826.9,5.02,000.00,025.3,024.6,000.0,033.8,027.1,12.4,0000.0,0012.40,0004.39,0003.56
2024-03-19 23:56:00,SystemResetWarning,0826.9,5.00,000.00,025.4,024.6,000.0,033.8,027.2,12.3,0000.0,0012.45,0004.41,0003.56
2024-03-19 23:57:00,SystemResetWarning,0826.9,4.99,000.00,025.4,024.6,000.0,033.8,027.2,12.4,0000.0,0012.15,0004.45,0003.57
2024-03-19 23:58:00,SystemResetWarning,0826.9,4.99,000.00,025.4,024.6,000.0,033.8,027.2,12.3,0000.0,0011.77,0004.46,0003.57
2024-03-19 23:59:00,SystemResetWarning,0826.9,5.00,000.00,025.4,024.6,000.0,033.8,027.2,12.5,0000.0,0011.56,0004.44,0003.56
